Simultaneous Nadir Overpasses (SNOs) Predictions

Prediction of SNOs between AQUA and METOP-C Satellite Orbit:

Table of predicted SNOs for the next 14.0 days since TLE Epoch: 3/8/2025
Index Date (AQUA) Time (AQUA) Lat,Lon (AQUA) SZA (AQUA ) Date (METOP-C) Time (METOP-C) Lat,Lon (METOP-C) SZA (METOP-C ) Distance(km) Time Diff (sec)
1 03/08/2025 18:02:06 76.29, -89.14 80.80 03/08/2025 18:01:57 76.29, -89.24 80.79 2.53 9
2 03/08/2025 18:51:26 -76.37, 78.26 99.14 03/08/2025 18:52:37 -76.37, 78.40 99.14 3.52 71
3 03/11/2025 06:51:18 76.31, 78.56 79.82 03/11/2025 06:50:54 76.31, 78.62 79.83 1.52 24
4 03/11/2025 07:40:37 -76.34,-113.86 100.17 03/11/2025 07:41:35 -76.36,-113.90 100.15 2.26 58
5 03/13/2025 19:40:27 76.30,-113.64 78.82 03/13/2025 19:39:51 76.29,-113.72 78.80 2.70 36
6 03/13/2025 20:29:47 -76.38, 53.78 101.13 03/13/2025 20:30:31 -76.38, 53.94 101.12 4.23 44
7 03/16/2025 08:29:36 76.32, 54.09 77.83 03/16/2025 08:28:48 76.30, 54.08 77.81 1.86 48
8 03/16/2025 09:18:55 -76.34,-138.31 102.17 03/16/2025 09:19:29 -76.35,-138.41 102.15 2.75 34
9 03/18/2025 21:18:43 76.30,-138.08 76.81 03/18/2025 21:17:45 76.30,-138.14 76.81 1.78 58
10 03/18/2025 22:08:03 -76.37, 29.36 103.14 03/18/2025 22:08:26 -76.36, 29.38 103.15 1.51 23
11 03/21/2025 10:07:49 76.31, 29.69 75.81 03/21/2025 10:06:42 76.30, 29.60 75.81 2.37 67
12 03/21/2025 10:57:09 -76.38,-162.87 104.13 03/21/2025 10:57:23 -76.36,-162.86 104.15 2.15 14



Historial Predications of SNOs between AQUA and METOP-C
